Time,TemperatureF,DewpointF,PressureIn,WindDirection,WindDirectionDegrees,WindSpeedMPH,WindSpeedGustMPH,Humidity,HourlyPrecipIn,Conditions,Clouds,dailyrainin,SoftwareType,DateUTC
2013-04-07 00:09:00,42.4,32.0,30.31,South,183,1.0,3.0,66,0.00,,,0.00,weatherlink.com 1.10,2013-04-07 04:09:00,
2013-04-07 00:24:00,42.2,32.0,30.31,SE,136,2.0,3.0,68,0.00,,,0.00,weatherlink.com 1.10,2013-04-07 04:24:00,
2013-04-07 00:39:00,42.0,32.0,30.31,ESE,123,1.0,3.0,68,0.00,,,0.00,weatherlink.com 1.10,2013-04-07 04:39:00,
2013-04-07 00:54:00,42.0,32.0,30.31,ESE,112,1.0,4.0,69,0.00,,,0.00,weatherlink.com 1.10,2013-04-07 04:54:00,
2013-04-07 01:09:00,41.9,33.0,30.30,ESE,111,2.0,5.0,70,0.00,,,0.00,weatherlink.com 1.10,2013-04-07 05:09:00,
2013-04-07 01:40:00,41.8,34.0,30.29,SE,132,0.0,3.0,73,0.00,,,0.00,weatherlink.com 1.10,2013-04-07 05:40:00,
2013-04-07 01:55:00,41.9,35.0,30.29,SSE,160,0.0,4.0,75,0.00,,,0.00,weatherlink.com 1.10,2013-04-07 05:55:00,
2013-04-07 04:03:00,42.0,37.0,30.25,SE,128,0.0,3.0,83,0.00,,,0.00,weatherlink.com 1.10,2013-04-07 08:03:00,
2013-04-07 04:41:00,41.4,37.0,30.27,WSW,246,0.0,2.0,84,0.00,,,0.00,weatherlink.com 1.10,2013-04-07 08:41:00,
2013-04-07 04:56:00,41.2,37.0,30.27,WSW,246,0.0,0.0,85,0.00,,,0.00,weatherlink.com 1.10,2013-04-07 08:56:00,
2013-04-07 05:26:00,41.2,37.0,30.27,WSW,246,0.0,1.0,86,0.00,,,0.00,weatherlink.com 1.10,2013-04-07 09:26:00,
2013-04-07 05:41:00,41.4,38.0,30.27,South,171,0.0,3.0,86,0.00,,,0.00,weatherlink.com 1.10,2013-04-07 09:41:00,
2013-04-07 05:56:00,41.5,38.0,30.27,South,171,0.0,3.0,86,0.00,,,0.00,weatherlink.com 1.10,2013-04-07 09:56:00,
2013-04-07 06:11:00,41.6,38.0,30.27,South,171,0.0,1.0,86,0.00,,,0.00,weatherlink.com 1.10,2013-04-07 10:11:00,
2013-04-07 06:41:00,41.7,38.0,30.27,South,186,2.0,3.0,87,0.00,,,0.00,weatherlink.com 1.10,2013-04-07 10:41:00,
2013-04-07 07:11:00,42.0,38.0,30.27,South,187,0.0,3.0,87,0.00,,,0.00,weatherlink.com 1.10,2013-04-07 11:11:00,
2013-04-07 07:41:00,42.4,39.0,30.28,SSW,202,0.0,3.0,87,0.00,,,0.00,weatherlink.com 1.10,2013-04-07 11:41:00,
2013-04-07 08:11:00,44.8,40.0,30.27,SSE,167,2.0,3.0,84,0.00,,,0.00,weatherlink.com 1.10,2013-04-07 12:11:00,
2013-04-07 08:41:00,46.1,41.0,30.27,South,173,2.0,5.0,83,0.00,,,0.00,weatherlink.com 1.10,2013-04-07 12:41:00,
2013-04-07 08:56:00,45.4,41.0,30.27,South,176,3.0,8.0,83,0.00,,,0.00,weatherlink.com 1.10,2013-04-07 12:56:00,
2013-04-07 09:11:00,46.0,41.0,30.26,South,175,3.0,7.0,84,0.00,,,0.00,weatherlink.com 1.10,2013-04-07 13:11:00,
2013-04-07 09:26:00,46.9,41.0,30.25,South,177,3.0,6.0,81,0.00,,,0.00,weatherlink.com 1.10,2013-04-07 13:26:00,
2013-04-07 09:41:00,47.6,41.0,30.24,SE,137,0.0,6.0,79,0.00,,,0.00,weatherlink.com 1.10,2013-04-07 13:41:00,
2013-04-07 09:56:00,48.6,42.0,30.24,ESE,121,2.0,7.0,77,0.00,,,0.00,weatherlink.com 1.10,2013-04-07 13:56:00,
2013-04-07 10:11:00,50.1,42.0,30.24,SSE,159,3.0,9.0,73,0.00,,,0.00,weatherlink.com 1.10,2013-04-07 14:11:00,
2013-04-07 10:26:00,50.9,42.0,30.23,South,188,12.0,12.0,72,0.00,,,0.00,weatherlink.com 1.10,2013-04-07 14:26:00,
2013-04-07 10:56:00,51.7,42.0,30.23,SE,140,3.0,8.0,69,0.00,,,0.00,weatherlink.com 1.10,2013-04-07 14:56:00,
2013-04-07 11:11:00,51.7,42.0,30.22,SE,143,6.0,11.0,69,0.00,,,0.00,weatherlink.com 1.10,2013-04-07 15:11:00,
2013-04-07 11:26:00,52.6,41.0,30.21,South,171,3.0,9.0,66,0.00,,,0.00,weatherlink.com 1.10,2013-04-07 15:26:00,
2013-04-07 11:41:00,53.5,41.0,30.20,SSW,194,4.0,12.0,62,0.00,,,0.00,weatherlink.com 1.10,2013-04-07 15:41:00,
2013-04-07 11:56:00,54.4,42.0,30.20,SSE,148,2.0,8.0,63,0.00,,,0.00,weatherlink.com 1.10,2013-04-07 15:56:00,
2013-04-07 12:12:00,55.3,42.0,30.18,SSE,148,6.0,9.0,61,0.00,,,0.00,weatherlink.com 1.10,2013-04-07 16:12:00,
2013-04-07 12:27:00,54.9,42.0,30.17,South,170,3.0,11.0,62,0.00,,,0.00,weatherlink.com 1.10,2013-04-07 16:27:00,
2013-04-07 12:42:00,55.4,42.0,30.17,SE,144,2.0,11.0,62,0.00,,,0.00,weatherlink.com 1.10,2013-04-07 16:42:00,
2013-04-07 12:57:00,55.8,42.0,30.16,South,177,7.0,10.0,61,0.00,,,0.00,weatherlink.com 1.10,2013-04-07 16:57:00,
2013-04-07 13:12:00,56.9,42.0,30.15,SE,139,3.0,9.0,58,0.00,,,0.00,weatherlink.com 1.10,2013-04-07 17:12:00,
2013-04-07 13:27:00,57.2,42.0,30.14,SSW,192,4.0,8.0,58,0.00,,,0.00,weatherlink.com 1.10,2013-04-07 17:27:00,
2013-04-07 13:42:00,57.6,43.0,30.13,SSE,148,2.0,10.0,59,0.00,,,0.00,weatherlink.com 1.10,2013-04-07 17:42:00,
2013-04-07 13:57:00,58.2,44.0,30.12,South,180,6.0,7.0,59,0.00,,,0.00,weatherlink.com 1.10,2013-04-07 17:57:00,
2013-04-07 14:12:00,58.2,44.0,30.11,South,172,2.0,10.0,59,0.00,,,0.00,weatherlink.com 1.10,2013-04-07 18:12:00,
2013-04-07 14:27:00,58.4,44.0,30.10,SE,133,4.0,10.0,60,0.00,,,0.00,weatherlink.com 1.10,2013-04-07 18:27:00,
2013-04-07 14:42:00,59.0,44.0,30.09,SE,141,2.0,8.0,59,0.00,,,0.00,weatherlink.com 1.10,2013-04-07 18:42:00,
2013-04-07 14:57:00,58.8,44.0,30.09,SSE,161,2.0,8.0,59,0.00,,,0.00,weatherlink.com 1.10,2013-04-07 18:57:00,
2013-04-07 15:12:00,59.2,45.0,30.08,SSE,148,1.0,7.0,60,0.00,,,0.00,weatherlink.com 1.10,2013-04-07 19:12:00,
2013-04-07 15:42:00,60.8,45.0,30.07,SSE,148,3.0,7.0,57,0.00,,,0.00,weatherlink.com 1.10,2013-04-07 19:42:00,
2013-04-07 15:57:00,61.0,45.0,30.06,SE,134,2.0,7.0,56,0.00,,,0.00,weatherlink.com 1.10,2013-04-07 19:57:00,
2013-04-07 16:12:00,59.9,45.0,30.04,SSE,150,5.0,8.0,58,0.00,,,0.00,weatherlink.com 1.10,2013-04-07 20:12:00,
2013-04-07 16:27:00,60.0,44.0,30.02,SE,131,3.0,10.0,57,0.00,,,0.00,weatherlink.com 1.10,2013-04-07 20:27:00,
2013-04-07 16:42:00,60.8,45.0,30.02,ESE,117,5.0,8.0,56,0.00,,,0.00,weatherlink.com 1.10,2013-04-07 20:42:00,
2013-04-07 16:57:00,61.3,45.0,30.02,SSE,160,2.0,7.0,55,0.00,,,0.00,weatherlink.com 1.10,2013-04-07 20:57:00,
2013-04-07 17:12:00,61.8,45.0,30.02,SE,133,4.0,8.0,54,0.00,,,0.00,weatherlink.com 1.10,2013-04-07 21:12:00,
2013-04-07 17:27:00,62.0,46.0,30.03,SSE,167,1.0,10.0,56,0.00,,,0.00,weatherlink.com 1.10,2013-04-07 21:27:00,
2013-04-07 17:42:00,62.2,46.0,30.03,NNE,33,1.0,6.0,56,0.00,,,0.00,weatherlink.com 1.10,2013-04-07 21:42:00,
2013-04-07 17:58:00,62.1,45.0,30.03,SSW,196,1.0,6.0,54,0.00,,,0.00,weatherlink.com 1.10,2013-04-07 21:58:00,
2013-04-07 18:13:00,61.3,45.0,30.03,South,180,0.0,6.0,56,0.00,,,0.00,weatherlink.com 1.10,2013-04-07 22:13:00,
2013-04-07 18:28:00,60.6,45.0,30.03,SSE,161,1.0,5.0,57,0.00,,,0.00,weatherlink.com 1.10,2013-04-07 22:28:00,
2013-04-07 18:43:00,59.9,46.0,30.02,SSE,161,1.0,5.0,60,0.00,,,0.00,weatherlink.com 1.10,2013-04-07 22:43:00,
2013-04-07 18:58:00,59.3,45.0,30.02,SSE,160,0.0,6.0,60,0.00,,,0.00,weatherlink.com 1.10,2013-04-07 22:58:00,
2013-04-07 19:13:00,58.7,46.0,30.02,SE,136,1.0,6.0,63,0.00,,,0.00,weatherlink.com 1.10,2013-04-07 23:13:00,
2013-04-07 19:28:00,58.0,46.0,30.02,SSE,164,1.0,6.0,65,0.00,,,0.00,weatherlink.com 1.10,2013-04-07 23:28:00,
2013-04-07 19:43:00,57.3,46.0,30.01,South,169,1.0,5.0,67,0.00,,,0.00,weatherlink.com 1.10,2013-04-07 23:43:00,
2013-04-07 19:58:00,56.8,47.0,30.01,South,177,4.0,4.0,69,0.00,,,0.00,weatherlink.com 1.10,2013-04-07 23:58:00,
2013-04-07 20:13:00,56.5,46.0,30.01,South,175,2.0,6.0,69,0.00,,,0.00,weatherlink.com 1.10,2013-04-08 00:13:00,
2013-04-07 20:28:00,56.2,47.0,30.02,SSW,207,0.0,6.0,70,0.00,,,0.00,weatherlink.com 1.10,2013-04-08 00:28:00,
2013-04-07 20:43:00,55.8,47.0,30.02,South,190,1.0,4.0,71,0.00,,,0.00,weatherlink.com 1.10,2013-04-08 00:43:00,
2013-04-07 20:58:00,55.8,47.0,30.02,SSW,197,0.0,4.0,71,0.00,,,0.00,weatherlink.com 1.10,2013-04-08 00:58:00,
2013-04-07 21:13:00,55.9,47.0,30.03,SSE,167,1.0,4.0,71,0.00,,,0.00,weatherlink.com 1.10,2013-04-08 01:13:00,
2013-04-07 21:28:00,55.9,46.0,30.03,SSE,167,1.0,2.0,70,0.00,,,0.00,weatherlink.com 1.10,2013-04-08 01:28:00,
2013-04-07 21:58:00,56.1,46.0,30.03,South,176,0.0,3.0,70,0.00,,,0.00,weatherlink.com 1.10,2013-04-08 01:58:00,
2013-04-07 22:13:00,56.0,46.0,30.03,South,191,0.0,3.0,70,0.00,,,0.00,weatherlink.com 1.10,2013-04-08 02:13:00,
2013-04-07 22:28:00,55.8,47.0,30.03,South,180,0.0,2.0,71,0.00,,,0.00,weatherlink.com 1.10,2013-04-08 02:28:00,
2013-04-07 22:43:00,55.5,47.0,30.03,SSW,192,0.0,2.0,72,0.00,,,0.00,weatherlink.com 1.10,2013-04-08 02:43:00,
2013-04-07 22:58:00,55.1,47.0,30.03,SSE,165,0.0,2.0,73,0.00,,,0.00,weatherlink.com 1.10,2013-04-08 02:58:00,
2013-04-07 23:28:00,55.0,46.0,30.03,SW,228,2.0,2.0,73,0.00,,,0.00,weatherlink.com 1.10,2013-04-08 03:28:00,
2013-04-07 23:43:00,54.8,46.0,30.03,SSW,196,0.0,2.0,73,0.00,,,0.00,weatherlink.com 1.10,2013-04-08 03:43:00,
2013-04-07 23:58:00,54.7,46.0,30.03,SSW,196,0.0,1.0,73,0.00,,,0.00,weatherlink.com 1.10,2013-04-08 03:58:00,